Hourly Data Report for May 17, 2021

DRYDEN REGIONAL
ONTARIO
Current Station Operator: NAVCAN

49°49'39.000" N
92°44'39.000" W
412.70 m
6032125
71527
YHD

Download Data

Hourly Data (May 2021)
Hourly Data Report for May 17, 2021
TIME
LST
Temp Definition
°C
Dew Point Definition
°C
Rel Hum Definition
%
Precip. Amount Definition
mm

Wind Dir Definition
10's deg

Wind Spd Definition
km/h
Visibility Definition
km
Stn Press Definition
kPa
Hmdx Definition


Wind Chill Definition


Weather Definition


00:00 14.4 8.4 67 0.0 4 9 16.1 96.50     LegendNANA
01:00 14.2 8.0 66 0.0 8 5 16.1 96.52     LegendNANA
02:00 13.9 8.1 68 0.0 15 13 16.1 96.50     LegendNANA
03:00 13.5 8.0 69 0.0 19 11 16.1 96.57     LegendNANA
04:00 14.1 7.7 65 0.0 LegendMM 8 16.1 96.61     LegendNANA
05:00 12.9 8.6 75 0.0 LegendMM 4 16.1 96.66     LegendNANA
06:00 12.6 8.6 76 0.0 3 9 16.1 96.72     LegendNANA
07:00 14.9 8.6 66 0.0 1 9 16.1 96.82     LegendNANA
08:00 15.4 9.2 66 0.0 4 8 16.1 96.85     LegendNANA
09:00 17.7 8.9 56 0.0 11 5 16.1 96.90     LegendNANA
10:00 19.9 7.9 45 0.0 LegendMM 11 16.1 96.91     LegendNANA
11:00 21.3 7.7 41 0.0 4 13 16.1 96.89     LegendNANA
12:00 22.2 7.9 40 0.0 14 9 16.1 96.88     LegendNANA
13:00 23.7 7.2 34 0.0 24 8 16.1 96.89     LegendNANA
14:00 25.4 6.8 30 0.0 23 11 16.1 96.88 25   LegendNANA
15:00 25.6 6.5 29 0.0 LegendMM 9 16.1 96.84 25   LegendNANA
16:00 26.4 7.1 29 0.0 26 13 16.1 96.78 26   LegendNANA
17:00 26.9 6.6 27 0.0 22 15 16.1 96.74 27   LegendNANA
18:00 26.7 6.4 27 0.0 22 11 16.1 96.73 26   LegendNANA
19:00 25.6 6.4 29 0.0 23 11 16.1 96.74 25   LegendNANA
20:00 23.1 7.0 35 0.0 19 9 16.1 96.78     LegendNANA
21:00 21.0 8.1 43 0.0 18 13 16.1 96.81     LegendNANA
22:00 19.9 8.4 47 0.0 18 11 16.1 96.82     LegendNANA
23:00 18.7 8.5 51 0.0 19 11 16.1 96.84     LegendNANA

Notes on Data Quality.

Legend

  • E = Estimated
  • M = Missing
  • NA = Not Available*
  • [empty] = Indicates an unobserved value
Date modified: